Satellite: HUBBLE
Catalog number: 20580
Epoch time:      10042.17471048
Element set:     515
Inclination:      028.4707 deg
RA of node:       342.4565 deg
Eccentricity:    0.0003224
Arg of perigee:   297.8634 deg
Mean anomaly:     062.1676 deg
Mean motion:   15.00891604 rev/day
Decay rate:       4.46e-06 rev/day^2
Epoch rev:           88579
Checksum:              294

Satellite: ISS
Catalog number: 25544
Epoch time:      10042.75330333
Element set:     565
Inclination:      051.6452 deg
RA of node:       154.6505 deg
Eccentricity:    0.0011053
Arg of perigee:   318.5383 deg
Mean anomaly:     197.9759 deg
Mean motion:   15.75838130 rev/day
Decay rate:     -1.711e-05 rev/day^2
Epoch rev:           64371
Checksum:              288

Satellite: CO-58
Catalog number: 28895
Epoch time:      10041.73094779
Element set:    0511
Inclination:      098.0327 deg
RA of node:       290.2690 deg
Eccentricity:    0.0017308
Arg of perigee:   324.6028 deg
Mean anomaly:     035.4022 deg
Mean motion:   14.59843440 rev/day
Decay rate:        9.3e-07 rev/day^2
Epoch rev:           22853
Checksum:              306

Satellite: FALCON
Catalog number: 30776
Epoch time:      10041.52024305
Element set:    0771
Inclination:      035.4330 deg
RA of node:       093.2019 deg
Eccentricity:    0.0000414
Arg of perigee:   239.0767 deg
Mean anomaly:     120.9909 deg
Mean motion:   15.03453757 rev/day
Decay rate:       6.34e-06 rev/day^2
Epoch rev:           16098
Checksum:              266

Satellite: MAST
Catalog number: 31126
Epoch time:      10041.69968509
Element set:    0797
Inclination:      097.9565 deg
RA of node:       090.1467 deg
Eccentricity:    0.0093653
Arg of perigee:   259.2036 deg
Mean anomaly:     099.8618 deg
Mean motion:   14.53551043 rev/day
Decay rate:       -4.3e-07 rev/day^2
Epoch rev:           14968
Checksum:              333

Satellite: CAPE1
Catalog number: 31130
Epoch time:      10041.69725349
Element set:    0813
Inclination:      097.9550 deg
RA of node:       087.8081 deg
Eccentricity:    0.0101693
Arg of perigee:   266.4860 deg
Mean anomaly:     092.4689 deg
Mean motion:   14.52132920 rev/day
Decay rate:       3.95e-06 rev/day^2
Epoch rev:           14930
Checksum:              301

Satellite: COMPASS
Catalog number: 32787
Epoch time:      10041.28818939
Element set:    0594
Inclination:      097.9094 deg
RA of node:       107.7109 deg
Eccentricity:    0.0015355
Arg of perigee:   342.3060 deg
Mean anomaly:     017.7622 deg
Mean motion:   14.81754304 rev/day
Decay rate:       6.85e-06 rev/day^2
Epoch rev:           09670
Checksum:              311

Satellite: AAUSAT2
Catalog number: 32788
Epoch time:      10041.70830486
Element set:    0588
Inclination:      097.9106 deg
RA of node:       108.2282 deg
Eccentricity:    0.0015031
Arg of perigee:   342.5027 deg
Mean anomaly:     017.5644 deg
Mean motion:   14.81885974 rev/day
Decay rate:       1.46e-06 rev/day^2
Epoch rev:           09677
Checksum:              312

Satellite: DO-64
Catalog number: 32789
Epoch time:      10041.79385276
Element set:     603
Inclination:      097.9153 deg
RA of node:       108.6550 deg
Eccentricity:    0.0015238
Arg of perigee:   339.9445 deg
Mean anomaly:     020.1175 deg
Mean motion:   14.81951086 rev/day
Decay rate:       3.07e-06 rev/day^2
Epoch rev:            9678
Checksum:              325

Satellite: CO-66
Catalog number: 32791
Epoch time:      10042.23804641
Element set:     583
Inclination:      097.9114 deg
RA of node:       108.6765 deg
Eccentricity:    0.0015616
Arg of perigee:   337.6104 deg
Mean anomaly:     022.4401 deg
Mean motion:   14.81561429 rev/day
Decay rate:       4.80e-06 rev/day^2
Epoch rev:            9680
Checksum:              291

Satellite: RS-30
Catalog number: 32953
Epoch time:      10042.72674787
Element set:     523
Inclination:      082.5017 deg
RA of node:       107.7050 deg
Eccentricity:    0.0019085
Arg of perigee:   020.5485 deg
Mean anomaly:     339.6363 deg
Mean motion:   12.43003371 rev/day
Decay rate:        1.0e-07 rev/day^2
Epoch rev:            7815
Checksum:              270

Satellite: TACSAT-3
Catalog number: 35001
Epoch time:      10041.94383022
Element set:    0229
Inclination:      040.4550 deg
RA of node:       251.6613 deg
Eccentricity:    0.0021132
Arg of perigee:   139.9637 deg
Mean anomaly:     220.2741 deg
Mean motion:   15.40224243 rev/day
Decay rate:      4.252e-05 rev/day^2
Epoch rev:           04115
Checksum:              229

Satellite: PHARMSAT
Catalog number: 35002
Epoch time:      10041.94579364
Element set:    0214
Inclination:      040.4685 deg
RA of node:       250.1681 deg
Eccentricity:    0.0024015
Arg of perigee:   144.8550 deg
Mean anomaly:     215.3855 deg
Mean motion:   15.40893858 rev/day
Decay rate:      4.334e-05 rev/day^2
Epoch rev:           04116
Checksum:              273

Satellite: HAWKSAT1
Catalog number: 35003
Epoch time:      10041.92470920
Element set:    0218
Inclination:      040.4603 deg
RA of node:       248.0010 deg
Eccentricity:    0.0022898
Arg of perigee:   152.3926 deg
Mean anomaly:     207.8111 deg
Mean motion:   15.42508418 rev/day
Decay rate:      8.324e-05 rev/day^2
Epoch rev:           04119
Checksum:              249

